[[{"header":{"parameterUnit":"m.s-1","parameterCategory":1,"la1":30.2991,"la2":30.254,"lo1":-89.0895,"lo2":-89.0444,"dy":0.0017,"dx":0.0017,"nx":28,"ny":28,"refTime":"2025-06-21T21:00:00:Z","depth":0,"parameterNumber":2,"parameterNumberName":"U-component_of_WINDS"},"data":[0,0,0,0,0,0,0,0,0,0,0,0,0,0,0,0,0,0,0,0,0,0,0,0,0,0,0,0,0,0,0,0,0,0,0,0,0,0,0,0,0,0,0,0,0,0,0,0,0,0,0,0,0,0,0,0,0,0,-1.4064,-1.4064,0,-1.4095,-1.4096,-1.4096,-1.4101,-1.4101,-1.41,-1.41,-1.4134,-1.4135,-1.4136,0,0,0,0,0,0,0,0,0,0,0,0,0,-1.401,-1.4011,-1.4064,-1.4064,-1.4064,-1.4095,-1.4096,-1.4096,-1.4101,-1.4101,-1.41,-1.41,-1.4134,-1.4135,-1.4137,0,0,0,0,0,0,0,0,0,0,0,0,0,-1.4037,-1.4011,-1.4064,-1.407,-1.4071,-1.4095,-1.4096,-1.4096,-1.4101,-1.4101,-1.41,-1.41,-1.4133,-1.4135,-1.4137,-1.4156,0,0,-1.4142,-1.4143,0,0,0,0,0,0,0,0,-1.4035,-1.4039,-1.4069,-1.407,-1.4071,-1.4094,-1.4089,-1.4117,-1.4101,-1.409,-1.41,-1.41,-1.4121,-1.4124,-1.4131,-1.4158,-1.4159,-1.4142,-1.4143,-1.4144,-1.4145,0,0,0,0,0,0,0,-1.4033,-1.4037,-1.4076,-1.407,-1.4071,-1.4073,-1.4076,-1.4095,-1.4108,-1.4091,-1.4091,-1.4095,-1.4122,-1.4129,-1.4132,-1.416,-1.4142,-1.4144,-1.4145,-1.4146,-1.4206,-1.4207,0,0,0,0,0,0,-1.403,-1.4036,-1.4075,-1.4077,-1.4052,-1.4074,-1.4078,-1.4087,-1.4107,-1.411,-1.4095,-1.4095,-1.4126,-1.413,-1.4133,-1.4158,-1.4144,-1.4146,-1.4147,-1.4206,-1.4206,-1.4207,0,0,0,0,0,0,-1.4029,-1.4033,-1.4074,-1.4057,-1.4062,-1.4076,-1.4086,-1.4088,-1.4095,-1.4111,-1.4113,-1.41,-1.4126,-1.413,-1.4151,-1.4159,-1.4147,-1.4148,-1.4205,-1.4206,-1.4207,-1.4207,0,0,0,0,0,0,-1.4027,-1.4033,-1.404,-1.4057,-1.4063,-1.409,-1.4086,-1.4089,-1.4098,-1.4098,-1.4116,-1.4119,-1.4126,-1.4148,-1.4152,-1.4161,-1.415,-1.4204,-1.4206,-1.4207,-1.4207,-1.4208,-1.4209,0,0,0,0,0,-1.4025,-1.4039,-1.404,-1.4045,-1.4071,-1.4091,-1.4094,-1.4102,-1.4099,-1.4106,-1.4116,-1.4118,-1.4158,-1.415,-1.4155,-1.4165,-1.4204,-1.4205,-1.4206,-1.4206,-1.4208,-1.4209,0,0,0,0,0,0,-1.4023,-1.4041,-1.4043,-1.4062,-1.4075,-1.4091,-1.4101,-1.4104,-1.4118,-1.4117,-1.4127,-1.4131,-1.4151,-1.416,-1.4151,-1.4185,-1.4181,-1.4183,-1.4179,-1.418,-1.4182,-1.4179,-1.4151,0,0,0,0,0,-1.4024,-1.4037,-1.4053,-1.4069,-1.4075,-1.4087,-1.4096,-1.4101,-1.4115,-1.412,-1.4132,-1.4146,-1.4162,-1.4172,-1.4187,-1.4208,-1.4213,-1.4218,-1.4219,-1.422,-1.4222,-1.4235,-1.4237,-1.4211,-1.4211,-1.4211,0,0,-1.4028,-1.4039,-1.4047,-1.4069,-1.4079,-1.4094,-1.4091,-1.4107,-1.4118,-1.4123,-1.4142,-1.4152,-1.4168,-1.4189,-1.4199,-1.4197,-1.423,-1.4222,-1.4222,-1.4223,-1.4236,-1.4239,-1.4241,-1.4212,-1.4212,-1.4212,0,0,-1.4041,-1.4051,-1.4066,-1.4076,-1.4092,-1.41,-1.4104,-1.4121,-1.4127,-1.4147,-1.4151,-1.4165,-1.4192,-1.4204,-1.4213,-1.4233,-1.4236,-1.4238,-1.4245,-1.4258,-1.426,-1.4261,-1.4269,-1.4272,-1.424,-1.424,-1.424,0,-1.4044,-1.4065,-1.4073,-1.4088,-1.4098,-1.4103,-1.4118,-1.4129,-1.4149,-1.4156,-1.4153,-1.4188,-1.4199,-1.4224,-1.4229,-1.4236,-1.4241,-1.4236,-1.4259,-1.4261,-1.4262,-1.427,-1.4273,-1.424,-1.424,-1.424,-1.424,0,-1.4067,-1.4082,-1.4092,-1.4111,-1.4122,-1.4137,-1.4149,-1.4159,-1.4164,-1.4172,-1.4194,-1.4208,-1.4226,-1.4233,-1.4237,-1.4258,-1.4257,-1.4256,-1.4252,-1.4265,-1.4272,-1.4275,-1.424,-1.424,-1.424,-1.424,0,0,-1.4079,-1.4103,-1.4107,-1.4116,-1.4135,-1.4147,-1.4163,-1.4181,-1.419,-1.4204,-1.4219,-1.4242,-1.4242,-1.4253,-1.4259,-1.427,-1.4286,-1.4269,-1.4269,-1.4272,-1.4311,-1.4311,-1.4314,-1.4288,-1.4289,-1.4289,-1.431,0,-1.4095,-1.4122,-1.4131,-1.4155,-1.4169,-1.4175,-1.4189,-1.4203,-1.4212,-1.4227,-1.4237,-1.4253,-1.4252,-1.4259,-1.427,-1.4282,-1.4294,-1.428,-1.4302,-1.4303,-1.4297,-1.4318,-1.4317,-1.4336,-1.4313,-1.4313,-1.4313,0,-1.4116,-1.4131,-1.4156,-1.4174,-1.418,-1.4193,-1.4211,-1.4224,-1.424,-1.4246,-1.4259,-1.4265,-1.4283,-1.4278,-1.4304,-1.4295,-1.4305,-1.4312,-1.4313,-1.4315,-1.4309,-1.432,-1.4342,-1.4345,-1.4318,-1.4317,-1.4317,0,-1.4122,-1.4149,-1.4167,-1.4175,-1.4196,-1.4205,-1.4215,-1.423,-1.4241,-1.4257,-1.4264,-1.4283,-1.4293,-1.4307,-1.4318,-1.4313,-1.4344,-1.4339,-1.435,-1.4349,-1.4355,-1.4355,-1.4379,-1.4362,-1.4362,-1.4362,-1.4362,0,-1.4139,-1.4154,-1.417,-1.4182,-1.4199,-1.421,-1.4227,-1.4237,-1.4252,-1.4266,-1.4273,-1.4286,-1.43,-1.4316,-1.4325,-1.4346,-1.435,-1.4356,-1.4358,-1.4355,-1.4355,-1.4362,-1.4361,-1.4363,-1.4362,-1.4362,-1.4362,0,-1.4148,-1.416,-1.418,-1.4199,-1.4204,-1.4217,-1.4233,-1.4245,-1.4255,-1.4273,-1.4278,-1.4294,-1.4313,-1.4326,-1.435,-1.4356,-1.4379,-1.4381,-1.4373,-1.4374,-1.4384,-1.4383,-1.4413,-1.4418,-1.4398,-1.4398,-1.4398,0,-1.4158,-1.417,-1.419,-1.42,-1.4209,-1.4225,-1.4236,-1.4247,-1.4259,-1.4279,-1.4289,-1.4308,-1.4324,-1.4355,-1.4369,-1.4388,-1.4391,-1.44,-1.4394,-1.4391,-1.4391,-1.439,-1.4392,-1.4401,-1.4401,-1.4401,-1.4401,0,-1.4174,-1.4179,-1.4194,-1.4212,-1.4225,-1.4239,-1.4254,-1.4262,-1.4276,-1.4289,-1.4308,-1.4321,-1.4346,-1.4366,-1.4386,-1.4397,-1.4402,-1.4404,-1.4407,-1.4404,-1.4399,-1.4402,-1.4376,-1.4403,-1.4402,-1.4402,-1.4402,-1.4402,-1.4184,-1.4195,-1.4211,-1.4228,-1.424,-1.4254,-1.4267,-1.4278,-1.4294,-1.4315,-1.4322,-1.4342,-1.436,-1.4388,-1.44,-1.4416,-1.4416,-1.442,-1.4422,-1.4423,-1.4423,-1.4397,-1.442,-1.442,-1.442,-1.442,-1.442,0,-1.42,-1.4211,-1.4227,-1.4247,-1.4261,-1.4264,-1.4281,-1.4292,-1.431,-1.4326,-1.4342,-1.4365,-1.4384,-1.44,-1.4421,-1.4431,-1.4434,-1.4436,-1.4436,-1.4438,-1.4422,-1.4417,-1.4434,-1.4434,-1.4434,-1.4434,-1.4434,-1.4434,-1.421,-1.423,-1.4237,-1.4263,-1.4274,-1.4294,-1.4303,-1.4316,-1.4329,-1.4354,-1.437,-1.4381,-1.4397,-1.4419,-1.4438,-1.4442,-1.4449,-1.4451,-1.4456,-1.4441,-1.4439,-1.4438,-1.4433,-1.4452,-1.4452,-1.447,-1.4471,-1.4471]},{"header":{"parameterUnit":"m.s-1","parameterCategory":1,"la1":30.2991,"la2":30.254,"lo1":-89.0895,"lo2":-89.0444,"dy":0.0017,"dx":0.0017,"nx":28,"ny":28,"refTime":"2025-06-21T21:00:00:Z","depth":0,"parameterNumber":3,"parameterNumberName":"V-component_of_WINDS"},"data":[0,0,0,0,0,0,0,0,0,0,0,0,0,0,0,0,0,0,0,0,0,0,0,0,0,0,0,0,0,0,0,0,0,0,0,0,0,0,0,0,0,0,0,0,0,0,0,0,0,0,0,0,0,0,0,0,0,0,1.2851,1.2851,0,1.2861,1.2861,1.2861,1.2882,1.2883,1.2883,1.2883,1.2893,1.2893,1.2893,0,0,0,0,0,0,0,0,0,0,0,0,0,1.2848,1.2848,1.2851,1.2851,1.2851,1.2861,1.2861,1.2861,1.2882,1.2883,1.2883,1.2884,1.2893,1.2893,1.2893,0,0,0,0,0,0,0,0,0,0,0,0,0,1.2853,1.2848,1.2851,1.2862,1.2864,1.2861,1.2861,1.2861,1.2882,1.2883,1.2883,1.2884,1.2893,1.2893,1.2893,1.2879,0,0,1.2892,1.2892,0,0,0,0,0,0,0,0,1.2852,1.2853,1.2861,1.2862,1.2863,1.2871,1.2864,1.2867,1.2882,1.2875,1.2883,1.2884,1.2885,1.2886,1.2886,1.288,1.288,1.2892,1.2892,1.2892,1.2892,0,0,0,0,0,0,0,1.2852,1.2852,1.2855,1.2861,1.2862,1.2867,1.2868,1.2865,1.2876,1.2876,1.2877,1.2878,1.2886,1.2886,1.2887,1.288,1.2892,1.2892,1.2892,1.2892,1.2862,1.2862,0,0,0,0,0,0,1.285,1.2852,1.2854,1.2855,1.2859,1.2867,1.2868,1.2868,1.2877,1.2879,1.2878,1.2879,1.2886,1.2887,1.2887,1.2871,1.2892,1.2892,1.2892,1.2863,1.2862,1.2862,0,0,0,0,0,0,1.285,1.285,1.2854,1.2854,1.2855,1.2866,1.2865,1.2868,1.2868,1.2878,1.288,1.2876,1.2887,1.2887,1.2881,1.2872,1.2892,1.2892,1.2864,1.2863,1.2862,1.284,0,0,0,0,0,0,1.285,1.285,1.2845,1.2854,1.2855,1.2848,1.2865,1.2867,1.2868,1.287,1.2877,1.2879,1.2887,1.2881,1.2881,1.2872,1.2892,1.2865,1.2863,1.2862,1.2841,1.2838,1.2835,0,0,0,0,0,1.285,1.2838,1.2845,1.2845,1.2849,1.2847,1.2848,1.2858,1.2867,1.2862,1.2868,1.2879,1.2873,1.288,1.288,1.2871,1.2865,1.2864,1.2862,1.2843,1.2839,1.2835,0,0,0,0,0,0,1.2828,1.2839,1.2847,1.2838,1.2841,1.2851,1.2845,1.2854,1.2855,1.2857,1.2869,1.2871,1.2862,1.2866,1.2874,1.2858,1.2871,1.2869,1.2856,1.2852,1.2849,1.2848,1.2891,0,0,0,0,0,1.2822,1.282,1.283,1.2821,1.2823,1.2833,1.2833,1.2841,1.2845,1.2847,1.2853,1.2856,1.2855,1.2854,1.2854,1.2842,1.2844,1.2836,1.2833,1.283,1.2829,1.2823,1.2819,1.2857,1.2857,1.2857,0,0,1.281,1.2816,1.2814,1.2817,1.2821,1.2818,1.2835,1.2831,1.2829,1.2846,1.284,1.2845,1.2849,1.284,1.2836,1.2843,1.2819,1.2828,1.2826,1.2826,1.2821,1.2817,1.2814,1.2856,1.2856,1.2856,0,0,1.2786,1.2791,1.2784,1.2787,1.2793,1.28,1.2798,1.2806,1.281,1.2805,1.2817,1.2815,1.2813,1.2816,1.2817,1.2794,1.2804,1.2794,1.2778,1.2772,1.2769,1.2766,1.2758,1.2755,1.2792,1.2792,1.2792,0,1.277,1.2767,1.2779,1.2775,1.2776,1.2791,1.2784,1.2787,1.2792,1.2792,1.2799,1.2797,1.2801,1.2793,1.2787,1.2788,1.2786,1.2793,1.2769,1.2766,1.2764,1.2756,1.2753,1.2791,1.2791,1.2791,1.2791,0,1.2747,1.2745,1.2739,1.2743,1.2743,1.2738,1.2748,1.2747,1.2755,1.2761,1.2755,1.2761,1.2762,1.2761,1.2768,1.2753,1.2757,1.2766,1.2779,1.2759,1.2752,1.2749,1.2789,1.279,1.279,1.279,0,0,1.271,1.2722,1.2719,1.2721,1.2728,1.2727,1.2721,1.2723,1.2721,1.2724,1.272,1.2718,1.2727,1.2728,1.2736,1.273,1.2712,1.274,1.2741,1.2734,1.2695,1.2688,1.2684,1.2718,1.2718,1.2717,1.2695,0,1.2688,1.268,1.2691,1.268,1.2678,1.2693,1.2688,1.2692,1.2698,1.2696,1.2703,1.2701,1.2713,1.2713,1.2709,1.2715,1.2704,1.2717,1.2714,1.2714,1.2712,1.2681,1.2673,1.2652,1.2692,1.2692,1.2691,0,1.2661,1.2663,1.2652,1.266,1.2659,1.2655,1.2657,1.2656,1.266,1.2665,1.2666,1.2676,1.2671,1.2684,1.2677,1.2685,1.2685,1.2688,1.2687,1.2687,1.2701,1.2679,1.2645,1.2642,1.2687,1.2687,1.2688,0,1.2634,1.2634,1.2628,1.2629,1.2638,1.2635,1.2638,1.2644,1.2644,1.2645,1.2645,1.2646,1.2646,1.2647,1.2656,1.2665,1.2648,1.2662,1.2652,1.2651,1.2647,1.2647,1.2612,1.2647,1.2647,1.2647,1.2647,0,1.2608,1.2601,1.2616,1.2612,1.2604,1.2616,1.2608,1.2613,1.2618,1.2615,1.2628,1.2625,1.2637,1.2636,1.2643,1.2636,1.2636,1.2639,1.2641,1.2638,1.2638,1.2638,1.2639,1.2647,1.2647,1.2647,1.2647,0,1.2577,1.2587,1.2581,1.259,1.2592,1.2586,1.2594,1.259,1.2597,1.2593,1.2593,1.2603,1.2601,1.2611,1.2611,1.2616,1.2605,1.261,1.2604,1.2605,1.2594,1.2595,1.2557,1.2553,1.2591,1.2591,1.2591,0,1.2559,1.2554,1.2563,1.2562,1.2565,1.2563,1.2564,1.2575,1.2575,1.258,1.2575,1.2575,1.2575,1.2572,1.2579,1.2579,1.2584,1.2571,1.2584,1.2581,1.2583,1.2583,1.2583,1.2568,1.2567,1.2567,1.2567,0,1.2527,1.2532,1.2532,1.2534,1.2534,1.2535,1.2538,1.2536,1.2549,1.2548,1.2547,1.2547,1.2547,1.2546,1.2548,1.2551,1.2561,1.2563,1.256,1.2557,1.2553,1.2554,1.2596,1.2563,1.2564,1.2564,1.2564,1.2564,1.2502,1.2498,1.2504,1.2503,1.2506,1.2508,1.2506,1.2512,1.2511,1.2513,1.252,1.2517,1.2521,1.2525,1.2527,1.2525,1.2531,1.2528,1.2527,1.2525,1.2523,1.2554,1.2525,1.2525,1.2525,1.2525,1.2526,0,1.247,1.2475,1.2474,1.2477,1.2477,1.2486,1.249,1.2488,1.2486,1.249,1.249,1.2488,1.2487,1.2495,1.2495,1.2492,1.2496,1.2491,1.2492,1.2492,1.2518,1.252,1.2488,1.2488,1.2488,1.2488,1.2488,1.2488,1.2454,1.2448,1.2453,1.2449,1.2453,1.2451,1.2452,1.2454,1.2457,1.2454,1.2454,1.2459,1.2464,1.2464,1.2464,1.2466,1.2466,1.2459,1.2463,1.2487,1.249,1.2494,1.2496,1.2459,1.2459,1.2437,1.2437,1.2437]}]]